AAL2830 KTUS-KPHX

Flight info

Callsign AAL2830
Flight time 0h 31m
Altitude 22000
Route BURRO5 HOTTT PINNG1
Aircraft B38M/M-SDE1FGHILORVWXY/HB1

Departure

Time 2026-04-30 18:45
Airport Tucson International Airport (KTUS)

Arrival

Time 2026-04-30 19:16
Airport Phoenix Sky Harbor International Airport (KPHX)
Time Latitude Longitude Altitude Speed Heading
2026-04-30 17:52 32.12176 -110.93994 2607 ft 0 kts 160°
2026-04-30 18:36 32.12196 -110.94000 2607 ft 4 kts 179°
2026-04-30 18:36 32.12217 -110.93992 2606 ft 4 kts 235°
2026-04-30 18:36 32.12222 -110.93977 2606 ft 1 kts 269°
2026-04-30 18:41 32.12222 -110.93979 2606 ft 0 kts 269°
2026-04-30 18:41 32.12222 -110.93985 2606 ft 4 kts 269°
2026-04-30 18:41 32.12203 -110.94055 2606 ft 12 kts 221°
2026-04-30 18:41 32.12124 -110.94090 2607 ft 13 kts 182°
2026-04-30 18:42 32.12035 -110.94094 2608 ft 13 kts 204°
2026-04-30 18:42 32.12119 -110.94290 2602 ft 19 kts 315°
2026-04-30 18:42 32.12218 -110.94406 2599 ft 22 kts 315°
2026-04-30 18:45 32.08586 -110.90398 5015 ft 209 kts 139°
2026-04-30 18:45 32.07498 -110.89126 5588 ft 231 kts 138°
2026-04-30 18:45 32.06306 -110.87726 6257 ft 251 kts 137°
2026-04-30 18:46 32.05025 -110.86224 6941 ft 268 kts 137°
2026-04-30 18:46 32.03671 -110.84636 7746 ft 279 kts 137°
2026-04-30 18:46 32.02266 -110.83045 8715 ft 283 kts 144°
2026-04-30 18:46 32.00506 -110.82056 9682 ft 280 kts 171°
2026-04-30 18:47 31.98560 -110.82061 10430 ft 287 kts 195°
2026-04-30 18:47 31.96696 -110.83041 10942 ft 302 kts 217°
2026-04-30 18:47 31.94972 -110.84553 11513 ft 317 kts 219°
2026-04-30 18:47 31.93503 -110.86508 12305 ft 319 kts 242°
2026-04-30 18:48 31.92791 -110.88978 13244 ft 323 kts 261°
2026-04-30 18:48 31.92639 -110.91622 14144 ft 325 kts 266°
2026-04-30 18:48 31.92839 -110.94241 14977 ft 331 kts 283°
2026-04-30 18:48 31.93882 -110.96716 15861 ft 340 kts 301°
2026-04-30 18:49 31.95261 -110.99000 16617 ft 344 kts 300°
2026-04-30 18:49 31.96652 -111.01305 17429 ft 347 kts 300°
2026-04-30 18:49 31.98045 -111.03594 18180 ft 351 kts 300°
2026-04-30 18:49 31.99482 -111.05943 18787 ft 356 kts 300°
2026-04-30 18:50 32.00939 -111.08320 19444 ft 358 kts 299°
2026-04-30 18:50 32.02403 -111.10707 20097 ft 362 kts 299°
2026-04-30 18:50 32.03882 -111.13119 20730 ft 365 kts 298°
2026-04-30 18:50 32.05530 -111.15454 21318 ft 380 kts 310°
2026-04-30 18:51 32.07775 -111.17232 21607 ft 400 kts 328°
2026-04-30 18:51 32.10499 -111.18108 21763 ft 416 kts 348°
2026-04-30 18:51 32.13432 -111.17847 21897 ft 431 kts 11°
2026-04-30 18:51 32.16278 -111.16662 21906 ft 434 kts 14°
2026-04-30 18:52 32.19154 -111.15565 21912 ft 434 kts 13°
2026-04-30 18:52 32.22032 -111.14494 21900 ft 434 kts 13°
2026-04-30 18:52 32.24911 -111.13432 21886 ft 434 kts 13°
2026-04-30 18:52 32.27793 -111.12371 21886 ft 433 kts 13°
2026-04-30 18:53 32.30666 -111.11315 21899 ft 432 kts 13°
2026-04-30 18:53 32.33525 -111.10264 21894 ft 432 kts 13°
2026-04-30 18:53 32.36387 -111.09211 21896 ft 432 kts 13°
2026-04-30 18:53 32.39258 -111.08153 21898 ft 432 kts 13°
2026-04-30 18:54 32.42121 -111.07098 21909 ft 430 kts 13°
2026-04-30 18:54 32.44945 -111.06058 21900 ft 429 kts 13°
2026-04-30 18:54 32.47798 -111.05009 21897 ft 429 kts 12°
2026-04-30 18:54 32.50704 -111.04474 21903 ft 418 kts 354°
2026-04-30 18:55 32.53548 -111.04922 21897 ft 407 kts 336°
2026-04-30 18:55 32.58529 -111.07809 21892 ft 399 kts 323°
2026-04-30 18:55 32.60919 -111.09479 21905 ft 398 kts 322°
2026-04-30 18:56 32.65631 -111.12920 21915 ft 398 kts 321°
2026-04-30 18:56 32.67971 -111.14662 21905 ft 397 kts 321°
2026-04-30 18:56 32.70300 -111.16407 21899 ft 394 kts 321°
2026-04-30 18:57 32.74638 -111.20060 21883 ft 367 kts 304°
2026-04-30 18:57 32.76125 -111.22475 21898 ft 362 kts 298°
2026-04-30 18:57 32.77570 -111.24928 21877 ft 361 kts 298°
2026-04-30 18:58 32.80400 -111.29845 21883 ft 361 kts 297°
2026-04-30 18:58 32.81804 -111.32318 21850 ft 359 kts 297°
2026-04-30 18:58 32.83204 -111.34792 21167 ft 364 kts 297°
2026-04-30 18:59 32.86055 -111.39845 19695 ft 368 kts 299°
2026-04-30 19:00 32.90114 -111.47058 18533 ft 329 kts 299°
2026-04-30 19:00 32.91385 -111.49225 18082 ft 322 kts 304°
2026-04-30 19:00 32.94171 -111.53317 17129 ft 311 kts 304°
2026-04-30 19:01 32.96846 -111.57314 16457 ft 306 kts 304°
2026-04-30 19:01 32.98146 -111.59266 16144 ft 303 kts 304°
2026-04-30 19:02 33.00756 -111.63192 15517 ft 298 kts 304°
2026-04-30 19:02 33.03309 -111.67040 14902 ft 301 kts 304°
2026-04-30 19:03 33.05944 -111.71014 14289 ft 307 kts 305°
2026-04-30 19:03 33.08584 -111.74984 13530 ft 308 kts 306°
2026-04-30 19:04 33.11255 -111.78996 12692 ft 308 kts 306°
2026-04-30 19:04 33.13918 -111.83000 11897 ft 308 kts 306°
2026-04-30 19:05 33.16561 -111.86979 11056 ft 305 kts 307°
2026-04-30 19:05 33.19124 -111.90842 10306 ft 287 kts 307°
2026-04-30 19:06 33.21541 -111.94488 9554 ft 274 kts 307°
2026-04-30 19:06 33.22336 -111.95687 9299 ft 271 kts 307°
2026-04-30 19:06 33.24647 -111.99172 8591 ft 271 kts 307°
2026-04-30 19:07 33.26981 -112.02692 7909 ft 270 kts 307°
2026-04-30 19:07 33.28143 -112.04447 7583 ft 269 kts 308°
2026-04-30 19:08 33.30453 -112.07990 6904 ft 267 kts 302°
2026-04-30 19:08 33.31974 -112.11845 6248 ft 249 kts 294°
2026-04-30 19:08 33.32685 -112.13716 5872 ft 244 kts 294°
2026-04-30 19:09 33.34039 -112.17417 5123 ft 244 kts 283°
2026-04-30 19:09 33.34254 -112.19437 4790 ft 245 kts 272°
2026-04-30 19:09 33.34318 -112.21437 4430 ft 242 kts 270°
2026-04-30 19:10 33.35260 -112.24922 4111 ft 211 kts 307°
2026-04-30 19:10 33.37654 -112.26807 4025 ft 210 kts 341°
2026-04-30 19:11 33.39086 -112.26939 3939 ft 208 kts 14°
2026-04-30 19:11 33.41632 -112.25491 4034 ft 199 kts 32°
2026-04-30 19:11 33.42702 -112.24457 3976 ft 198 kts 44°
2026-04-30 19:12 33.43594 -112.23216 3940 ft 196 kts 64°
2026-04-30 19:12 33.43949 -112.21703 3957 ft 186 kts 82°
2026-04-30 19:12 33.44057 -112.20160 3895 ft 185 kts 90°
2026-04-30 19:13 33.44074 -112.17246 3450 ft 166 kts 91°
2026-04-30 19:13 33.44074 -112.14504 3022 ft 164 kts 91°
2026-04-30 19:13 33.44073 -112.13140 2820 ft 163 kts 91°
2026-04-30 19:14 33.44070 -112.11778 2599 ft 164 kts 93°
2026-04-30 19:14 33.44070 -112.10406 2356 ft 165 kts 92°
2026-04-30 19:14 33.44071 -112.09049 2161 ft 165 kts 92°
2026-04-30 19:14 33.44067 -112.07682 1970 ft 165 kts 92°
2026-04-30 19:15 33.44068 -112.06309 1749 ft 164 kts 91°
2026-04-30 19:15 33.44080 -112.03586 1306 ft 161 kts 91°
2026-04-30 19:15 33.44084 -112.02265 1136 ft 154 kts 92°
2026-04-30 19:16 33.44084 -112.01147 1134 ft 103 kts 91°
2026-04-30 19:16 33.44084 -112.00517 1131 ft 49 kts 89°
2026-04-30 19:16 33.43879 -112.00075 1127 ft 26 kts 182°
2026-04-30 19:17 33.43845 -112.00076 1125 ft 0 kts 181°
2026-04-30 19:17 33.43800 -112.00089 1122 ft 6 kts 245°
2026-04-30 19:17 33.43796 -112.00113 1127 ft 5 kts 269°
2026-04-30 19:18 33.43796 -112.00123 1127 ft 0 kts 270°